Starlink 4778

operational
NORAD ID: 53836 Int'l Des: 2022-114 Owner: SPXS Country: US Constellation: starlink
LEOCIRCULAR

Starlink 4778について

説明を読み込み中...

リアルタイム位置

3D地球を読み込み中...

次回通過

高度履歴

Altitude vs Time

uPlot chart will show altitude changes over time

軌道要素

1 53836U 22114U 26061.17117932 .00002802 00000-0 19407-3 0 9997
2 53836 53.2184 328.0742 0001366 84.3202 275.7945 15.08837899191830
Epoch: Mar 2, 2026 • Age: 26 hours

現在のステータス

高度 544.0 km
速度 7.59 km/s
衛星直下点 -15.08°S, 117.27°E
打ち上げ日 Sep 19, 2022
運用期間 3.4 years
タイプ internet

技術仕様

分類 Payload
質量 305.00 kg
乾燥質量 290.00 kg
総質量 305.00 kg
長さ 0.20 m
直径 2.80 m
スパン 9.00 m
形状 Box + pan
製造者 SPXS
バスタイプ Starlink
フェーズステータス In Orbit
所有者/国 SPXS/US

大規模コンステレーション

Loading constellations...